Regional Weather Roundup
Issued by NWS

Home | Current Version | Previous Version | Graphics & Text | Print | Product List | Glossary On
Versions: 1 2 3 4 5 6 7 8 9 10 11 12 13 14 15 16 17 18 19 20 21 22 23 24 25 26 27 28
000
ASUS45 KTFX 260210
RWRMT
MONTANA REGIONAL WEATHER ROUNDUP
NATIONAL WEATHER SERVICE GREAT FALLS MT
800 PM MDT SUN SEP 25 2016

NOTE: "FAIR" INDICATES FEW OR NO CLOUDS BELOW 12000 FEET WITH NO
SIGNIFICANT WEATHER AND/OR OBSTRUCTIONS TO VISIBILITY.

MTZ001>007-043-260300-
WEST OF THE DIVIDE

CITY           SKY/WX    TMP DP  RH WIND       PRES   REMARKS
KALISPELL      CLOUDY    58  40  51 CALM      30.40R
MISSOULA       CLOUDY    60  42  51 CALM      30.40F
BUTTE          CLEAR     57  37  47 NW7       30.46R
MULLAN PASS    CLEAR     50  38  63 VRB3      30.50S
ANACONDA         N/A     57  37  47 SW5       30.44R
DEER LODGE       N/A     59  39  47 N3        30.46R
EUREKA           N/A     61  39  44 SE5       30.38S
HAMILTON         N/A     59  45  58 SE3       30.41S
LIBBY            N/A     57  46  67 CALM      30.38R
PLAINS           N/A     61  41  47 CALM      30.38R
RONAN            N/A     58  40  51 CALM      30.42S
$$

MTZ008-052>055-260300-
SOUTHWEST MONTANA

CITY           SKY/WX    TMP DP  RH WIND       PRES   REMARKS
BOZEMAN        CLEAR     57  40  52 CALM      30.39R
DILLON         CLEAR     61  38  42 CALM      30.42R
W YELLOWSTONE    N/A     50  34  53 SW16G23   30.50R
ENNIS          CLOUDY    57  37  47 E5        30.48R
THREE FORKS      N/A     58  46  64 CALM      30.34R
TWIN BRIDGES     N/A     59  38  45 W2        30.36R
$$

MTZ009-010-012-014-046-048-049-054-260300-
EAST SLOPES AND CENTRAL MONTANA

CITY           SKY/WX    TMP DP  RH WIND       PRES   REMARKS
CUT BANK       CLEAR     54  40  59 W16       30.29R
GREAT FALLS    CLEAR     56  40  55 W7        30.31R
MALMSTROM AFB  CLEAR     62  41  46 W7        30.30R
HELENA         CLEAR     63  40  42 W13       30.35F
CHOTEAU          N/A     57  41  54 NW7       30.33S
CONRAD           N/A     57  46  66 SW9       30.30S
$$

MTZ011-013-016-021-045-047-050-051-260300-
NORTH CENTRAL MONTANA

CITY           SKY/WX    TMP DP  RH WIND       PRES   REMARKS
HAVRE          CLEAR     52  42  69 S9        30.22R
LEWISTOWN      PTCLDY    50  40  68 S7        30.30S
N BAR RANCH      N/A     46  39  76 W6        30.34R
CHINOOK          N/A     55  39  54 CALM      30.22R
$$

MTZ017>020-022>027-061-062-260300-
NORTHEAST MONTANA

CITY           SKY/WX    TMP DP  RH WIND       PRES   REMARKS
GLASGOW        CLEAR     55  38  52 W10       30.21F
JORDAN           N/A     50  41  71 NW5       30.26R
SIDNEY         CLEAR     56  38  50 W10       30.21S
WOLF POINT     CLEAR     56  39  53 W5        30.22S
PLENTYWOOD       N/A     52  34  50 N6        30.20R
POPLAR           N/A     54  39  58 SW6       30.22R
SCOBEY           N/A     48  31  52 CALM      30.19R
$$

MTZ028>42-056>058-260300-
SOUTHCENTRAL AND SOUTHEAST MONTANA

CITY           SKY/WX    TMP DP  RH WIND       PRES   REMARKS
BAKER          CLEAR     49  40  71 W10       30.27R
BILLINGS       PTCLDY    61  41  47 SW9       30.31R
LIVINGSTON     CLEAR     56  37  49 SW12      30.35R
MILES CITY     CLEAR     57  39  51 W6        30.26S
BIG TIMBER     CLEAR     61  36  39 W20G25    30.35R
EKALAKA          N/A     51  35  54 W5        30.25S
FORSYTH          N/A     55  39  54 CALM      30.27R
LAUREL           N/A     58  40  51 S6        30.28
ROUNDUP          N/A     59  36  42 NE1       30.19R
$$

REGIONAL REPORTS...DAKOTAS

CITY           SKY/WX    TMP DP  RH WIND       PRES   REMARKS
WILLISTON      CLEAR     53  33  46 NW10      30.19R
MINOT          CLEAR     55  35  47 W16       30.11R
DICKINSON      CLEAR     47  35  63 W9        30.20R
CROSBY           N/A     48  36  61 W8        30.19R
WATFORD CITY     N/A     46  36  66 W6        30.21R
BISMARCK       CLEAR     55  35  47 NW12      30.16R
GRAND FORKS    CLOUDY    56  45  66 NW16G24   29.93R
FARGO          CLOUDY    55  45  68 W8        29.98R
BUFFALO SD       N/A     51  38  60 W12       30.22R
RAPID CITY     CLEAR     49  34  56 NW10      30.31R
$$

REGIONAL REPORTS...WYOMING/IDAHO/WASHINGTON

CITY           SKY/WX    TMP DP  RH WIND       PRES   REMARKS
GILLETTE       CLEAR     45  40  82 SW5       30.34F
SHERIDAN       CLEAR     51  42  71 W6        30.33F
BUFFALO WY     CLEAR     49  41  74 W6        30.38R
CODY           CLEAR     52  43  71 CALM      30.40R
YELLOWSTONE LA   N/A     42  37  82 CALM      30.56R
IDAHO FALLS    CLEAR     59  38  45 S6        30.45R
SALMON         CLEAR     57  39  51 CALM      30.40R
BOISE          CLEAR     69  33  26 W5        30.35F
SPOKANE        PTCLDY    69  38  32 S5        30.35S
$$

REGIONAL REPORTS...ALBERTA

CITY           SKY/WX    TMP DP  RH WIND       PRES   REMARKS
EDMONTON       PTCLDY    54  36  50 W5        30.16R
CALGARY        PTCLDY    61  37  41 W16G28    30.20S
LETHBRIDGE     PTCLDY    59  41  51 W22       30.23R
MEDICINE HAT   PTCLDY    52  36  54 W5        30.21R
WATERTON GATE    N/A     55  39  54 SW16G26     N/A
CARDSTON         N/A     55  39  54 W10         N/A
MILK RIVER       N/A     55  41  58 W13         N/A
$$

REGIONAL REPORTS...SASKATCHEWAN

CITY           SKY/WX    TMP DP  RH WIND       PRES   REMARKS
SWIFT CURRENT  CLEAR     54  32  43 N3        30.20R
REGINA         MOCLDY    46  36  66 W6        30.15S
SASKATOON      CLEAR     50  32  50 W5        30.15R
CYPRESS HILLS    N/A     46  30  53 N2          N/A
VAL MARIE        N/A     48  37  66 SW2         N/A
ROCKGLEN         N/A     48  32  53 NW6         N/A
ASSINIBOIA       N/A     46  34  61 SE1         N/A
$$




USA.gov is the U.S. government's official web portal to all federal, state and local government web resources and services.